星链-2594 (STARLINK-2594 )

导读

STARLINK-2594是美国太空探索技术公司星链星座的一员,于2021年5月4日发射入轨,旨在为全球提供高速低延迟互联网覆盖,尤其服务偏远地区与网络基础设施薄弱区域。星链卫星依托近地轨道部署,该卫星加入后进一步扩充了星座规模,推进全球卫星互联网组网进程,目前已在太空正常运行多年。

Basic Information
目录编号:
48388
目录名称:
STARLINK-2594
国际标识:
2021-038AM
轨道中心:
EARTH
卫星名称:
星链-2594
卫星全名:
星链-2594 (STARLINK-2594 )
卫星状态:
在轨 (已飞行1949 天)
发射日期:
2021-05-04 UTC
国别 :
美国 (US)
星等 :
--
Orbit Information
数据来源 国际轨道数据
星历时间: 2026-09-04T13:16:02+0800
12小时前
查看轨道信息
半长轴: 6848.886km
偏心率: 0.0001285
轨道倾角: 53.160°
近地点辐角 85.986°
升交点赤经 234.508°
平近点角 274.128°
近地点: 469.868km
远地点: 471.63km
周期: 94.013分钟
每日圈数: 15.316973
Detailed Information
固有亮度:
5
最大亮度:
2.5
卫星平台:
Starlink V1.0
覆盖范围:
全球
运营商:
太空探索技术公司
运营商所在国:
美国
制造商(研发单位):
太空探索技术公司
制造商所在国:
美国
使用方式:
暂无
Satellite Introduction
星链(Starlink)计划是由太空探索技术公司(SpaceX)提出的一个巨型低轨卫星互联网星座项目,计划在2019年至2024年间在太空搭建由约1.2万颗卫星组成的“星链”网络,其中1584颗将部署在地球上空550千米处的近地轨道,并从2020年开始工作。该卫星仍在工作。
2D Orbit Map
3D Orbit Map
Orbit Altitude Analysis Chart
Orbit Inclination Analysis Chart
Orbit Comprehensive Analysis Chart
View Comprehensive Chart
Conjunction Data List
Event ID Objects TCA Miss Dist (km) Collision Risk Probability Collision Risk Index (CRI) Action
CDM_260906-224104-838805-420521
2026-09-06T
22:41:20+0000
0.418 km
远距离
1.315659E-4 高风险 0.77
CDM_260907-001504-838805-420521
2026-09-07T
00:15:17+0000
1.081 km
极远距离
7.30209E-6 低风险 0.52
CDM_260906-210704-838805-420521
2026-09-06T
21:07:22+0000
1.268 km
极远距离
4.252499E-6 低风险 0.48
CDM_260907-014904-838805-420521
2026-09-07T
01:49:15+0000
2.155 km
极远距离
9.751143E-7 极低风险 0.35
CDM_260904-180104-838806-955221
2026-09-04T
18:01:18+0000
2.943 km
极远距离
9.431687E-7 极低风险 0.34
CDM_260906-193304-838805-420521
2026-09-06T
19:33:25+0000
2.326 km
极远距离
8.416939E-7 极低风险 0.34